Regional Weather Roundup
Issued by NWS

Home | Current Version | Previous Version | Graphics & Text | Print | Product List | Glossary Off
Versions: 1 2 3 4 5 6 7 8 9 10 11 12 13 14 15 16 17 18 19 20 21 22 23 24 25 26 27 28 29 30 31 32 33 34 35 36 37 38 39 40 41 42 43 44 45 46 47 48 49 50

000
ASUS43 KMKX 101600
RWRWI

WISCONSIN REGIONAL WEATHER ROUNDUP
NATIONAL WEATHER SERVICE MILWAUKEE/SULLIVAN WI
1000 AM CST SAT DEC 10 2016

NOTE: "FAIR" INDICATES FEW OR NO CLOUDS BELOW 12,000 FEET WITH NO
SIGNIFICANT WEATHER AND/OR OBSTRUCTIONS TO VISIBILITY.

WIZ001-002-006>008-014>016-023>028-101700-
NORTHWEST WISCONSIN

CITY           SKY/WX    TMP DP  RH WIND       PRES   REMARKS
SUPERIOR ARPT  CLOUDY     6  -3  65 W7        30.49S WCI  -6
ASHLAND        CLOUDY     7   2  80 W8        30.47S HAZE    WCI  -6
HAYWARD        CLOUDY     8  -2  63 CALM      30.42F
SIREN          CLOUDY     7   2  79 SW6       30.45S WCI  -3
CUMBERLAND     CLOUDY     9   1  72 W6        30.42F WCI  -1
RICE LAKE      CLOUDY     9   4  77 W5        30.46S WCI   1
CHETEK         CLOUDY     8   3  78 SW3       30.45F
LADYSMITH      CLOUDY    10   1  67 NW3       30.44S
EAU CLAIRE     NOT AVBL
MENOMONIE      CLOUDY    10   2  72 CALM      30.46F
NEW RICHMOND   CLOUDY     6   0  76 CALM      30.46S
OSCEOLA        MOSUNNY    7   2  80 CALM      30.49F
$$

WIZ003>005-009-010-017-018-101700-
NORTH CENTRAL WISCONSIN

CITY           SKY/WX    TMP DP  RH WIND       PRES   REMARKS
MANITOWISH WTR SUNNY      3  -2  77 W6        30.37R WCI  -8
ARBOR VITAE    MOSUNNY    6  -1  73 NW6       30.38R WCI  -4
WOODRUFF       MOSUNNY    6  -1  73 NW6       30.38R WCI  -4
RHINELANDER    MOSUNNY    8  -2  63 W10       30.38R WCI  -6
EAGLE RIVER    MOSUNNY    7  -2  67 W9        30.35R WCI  -7
LAND O LAKES   MOSUNNY    8   0  69 W9        30.36R WCI  -5
PHILLIPS       CLOUDY     6  -4  66 CALM      30.39S
TOMAHAWK       CLOUDY     6  -2  67 W6        30.40S WCI  -4
MEDFORD        CLOUDY     8  -1  67 NW6       30.40S WCI  -2
MERRILL        CLOUDY     9   0  66 NW6       30.42S WCI  -1
$$

WIZ029-030-035-036-043>047-101700-
CENTRAL WISCONSIN

CITY           SKY/WX    TMP DP  RH WIND       PRES   REMARKS
WAUSAU         CLOUDY    10   1  67 NW8       30.42R WCI  -2
MOSINEE        FLURRIES  10   5  79 W7        30.43R WCI   0
MARSHFIELD     CLOUDY    11   1  64 NW7       30.41F WCI   0
STEVENS POINT  CLOUDY    11   0  61 W7G16     30.44S WCI   0
WAUPACA        SUNNY     18   4  54 W6        30.46S WCI   9
WAUTOMA        SUNNY     13   7  77 W7        30.47F WCI   3
WISC RAPIDS    MOSUNNY   13   6  74 NW8       30.46S WCI   2
CAMP DOUGLAS   NOT AVBL
$$

WIZ011>013-019>022-031-037>040-048>050-101700-
NORTHEAST WISCONSIN

CITY           SKY/WX    TMP DP  RH WIND       PRES   REMARKS
ANTIGO         CLOUDY     8   1  72 NW8       30.39R WCI  -5
SHAWANO        CLOUDY    17   5  60 NW10      30.45S WCI   4
OCONTO         CLOUDY    15   3  58 NW10      30.44S WCI   2
STURGEON BAY   CLOUDY    16   5  62 W12       30.43S WCI   3
GREEN BAY      MOSUNNY   19   5  54 NW12      30.45S WCI   7
MANITOWOC      NOT AVBL
APPLETON       PTSUNNY   16   1  53 W14       30.43S WCI   1
CLINTONVILLE   CLOUDY    16   5  62 W9        30.45S WCI   4
OSHKOSH        SUNNY     15   8  73 W8        30.46S WCI   4
$$

WIZ032>034-041-042-053>061-101700-
SOUTHWEST WISCONSIN

CITY           SKY/WX    TMP DP  RH WIND       PRES   REMARKS
LA CROSSE      PTSUNNY   13   6  74 CALM      30.50S
SPARTA         SUNNY     11   7  82 CALM      30.48F
VIROQUA        SUNNY      7   4  85 CALM      30.44F
BOSCOBEL       CLOUDY    17   7  64 CALM      30.51F
PRAIRIE DU CHI CLOUDY    16   8  72 NW5       30.51S WCI   8
PLATTEVILLE    CLOUDY    17  15  90 CALM      30.48S
$$

WIZ056-057-062-063-064-067-068-101700-
SOUTH CENTRAL WISCONSIN

CITY           SKY/WX    TMP DP  RH WIND       PRES   REMARKS
REEDSBURG      SUNNY     13   6  76 CALM      30.47F
BARABOO/DELLS  SUNNY     13   7  74 CALM      30.46F
LONE ROCK      NOT AVBL
MINERAL POINT  CLOUDY    18  16  93 W6        30.46S WCI   9
MADISON        PTSUNNY   16   7  67 W7        30.48S WCI   6
MIDDLETON      SUNNY     17  11  77 W7        30.47F WCI   8
WATERTOWN      SUNNY     16  11  79 W7        30.48S WCI   6
MONROE         CLOUDY    19  14  79 W8        30.47S WCI   9
JANESVILLE     MOSUNNY   19  12  73 W8        30.49S WCI   9
$$

WIZ051-052-058>065-066-070>072-101700-
SOUTHEAST WISCONSIN

CITY           SKY/WX    TMP DP  RH WIND       PRES   REMARKS
MILWAUKEE      FLURRIES  20   9  62 W13G22    30.49F WCI   7
WAUKESHA       CLOUDY    16  10  79 W12       30.48F WCI   3
MILWAUKEE/TIMM PTSUNNY   19   9  63 W10       30.49F WCI   8
RACINE         MOSUNNY   20  11  68 W9        30.50F WCI   9
BURLINGTON     MOSUNNY   23  18  81 W7        30.49S WCI  15
KENOSHA        PTSUNNY   20  13  74 W13       30.50S WCI   7
FOND DU LAC    SUNNY     16   8  71 W12       30.47S WCI   3
SHEBOYGAN      PTSUNNY   18   9  68 W13       30.46S WCI   5
WEST BEND      FLURRIES  16  12  86 W14       30.47R WCI   1
JUNEAU         PTSUNNY   14   8  78 W8        30.49S WCI   3
$$

LSZ147-162-101700-
LAKE SUPERIOR

STATION/POSITION TIME  TEMP    WIND        PRES    WAVE
                       AIR SEA DIR/SP/G            HT/PER
                 (UTC) (F)     (DEG/KT/KT) (MB)    (FT/S)
DEVILS ISLAND    1500    9     300/  7/  8 1032.7F
PORT WING        1540    9     300/ 13/ 15 1031.8S
SAXON HARBOR     1530    9     220/  7/ 12 1031.5R
$$

LMZ867-665-643>646-101700-
LAKE MICHIGAN

STATION/POSITION TIME  TEMP    WIND        PRES    WAVE
                       AIR SEA DIR/SP/G            HT/PER
                 (UTC) (F)     (DEG/KT/KT) (MB)    (FT/S)
CHAMBERS ISLAND  1540   17     280/  8/ 15 1029.5R
NORTHPORT PIER   1540   17     290/ 11/ 16 1029.8S
SISTER BAY       1520   17     320/ 21/ 29   N/A
ALGOMA LAKESHORE 1436          330/  9/ 14   N/A
KEWAUNEE LAKESHO 1530   17     310/  7/ 13 1030.0R
SHEBOYGAN LAKESH 1500   16     270/ 12/ 16 1032.8R
PORT WASHINGTON  1540   18     280/  9/ 16 1033.2S
KENOSHA   LAKESH 1500   18     270/ 11/ 15 1032.8
$$

TC  - TEMPERATURE IN CELSIUS
VSB - VISIBILITY IN STATUTE MILES
WCI - WIND CHILL INDEX
HX  - HEAT INDEX




USA.gov is the U.S. government's official web portal to all federal, state and local government web resources and services.